Sioux Falls, SD

11:40 AM CDT on October 14, 2019 (GMT -0500)
Foss

Weather History for KFSD - August, 2019

Change the Weather History Date:

Monday, August 12, 2019

  Actual Average Record
Temperature  
Mean Temperature 77 °F 72 °F  
Max Temperature 85 °F 83 °F 97 °F (1971)
Min Temperature 69 °F 61 °F 44 °F (1964)
Degree Days  
Heating Degree Days 0 0  
Month to date heating degree days 0 0  
Since 1 June heating degree days 20 59  
Since 1 July heating degree days 0 8  
Cooling Degree Days 12 7  
Month to date cooling degree days 112 90  
Year to date cooling degree days 640 517  
Since 1 June cooling degree days 625 481  
Growing Degree Days 26 (Base 50)    
Moisture  
Dew Point 68 °F    
Average Humidity 78    
Maximum Humidity 90    
Minimum Humidity 65    
Precipitation  
Precipitation 0.02 in 0.10 in 1.08 in (1905)
Month to date precipitation 0.41 1.21  
Year to date precipitation 27.60 17.55  
Snow  
Snow 0.00 in 0.00 in 0.00 in ()
Month to date snowfall 0.0 0.0  
Since 1 June snowfall T 0.0  
Since 1 July snowfall T 0.0  
Snow Depth 0.00 in    
Sea Level Pressure  
Sea Level Pressure 29.86 in    
Wind  
Wind Speed 6 mph (ENE)    
Max Wind Speed 14 mph    
Max Gust Speed 19 mph    
Visibility 9 miles    
Events Rain    
T = Trace of Precipitation, MM = Missing Value Source: NWS Daily Summary

Daily Weather History Graph

Daily Weather History Graph

Search for Another Location

Airport or City:

Astronomy

Aug. 12, 2019 Rise Set
Actual Time 6:28 AM CDT 8:35 PM CDT
Civil Twilight 5:56 AM CDT 9:06 PM CDT
Nautical Twilight 5:18 AM CDT 9:44 PM CDT
Astronomical Twilight 4:35 AM CDT 10:27 PM CDT
Moon 7:10 PM CDT (8/12) 3:33 AM CDT (8/12)
Length of Visible Light 15h 09m
Length of Day
14h 06m
Waxing Gibbous, 93% of the Moon is Illuminated
Aug 12
Waxing Gibbous
Aug 15
Full
Aug 23
Last Quarter
Aug 30
New
Sep 5
First Quarter

Hourly Weather History & Observations

Time (CDT) Temp. Heat Index Dew Point Humidity Pressure Visibility Wind Dir Wind Speed Gust Speed Precip Events Conditions
12:18 AM 70.0 °F - 66.0 °F 87% 29.94 in 10.0 mi East 11.5 mph - N/A   Mostly Cloudy
12:27 AM 70.0 °F - 66.0 °F 87% 29.94 in 10.0 mi ESE 12.7 mph - N/A   Mostly Cloudy
12:34 AM 71.1 °F - 66.0 °F 84% 29.94 in 10.0 mi ESE 11.5 mph - N/A   Mostly Cloudy
12:47 AM 70.0 °F - 64.9 °F 84% 29.93 in 10.0 mi ESE 12.7 mph - N/A   Scattered Clouds
12:56 AM 70.0 °F - 64.9 °F 84% 29.90 in 10.0 mi ESE 12.7 mph - N/A   Partly Cloudy
1:45 AM 71.1 °F - 66.0 °F 84% 29.91 in 10.0 mi ESE 11.5 mph - N/A   Mostly Cloudy
1:56 AM 71.1 °F - 66.0 °F 84% 29.89 in 10.0 mi SE 9.2 mph - N/A   Mostly Cloudy
2:45 AM 70.0 °F - 66.0 °F 87% 29.88 in 10.0 mi ESE 10.4 mph - N/A   Mostly Cloudy
2:56 AM 70.0 °F - 66.0 °F 87% 29.86 in 10.0 mi ESE 10.4 mph - N/A   Mostly Cloudy
3:15 AM 70.0 °F - 66.0 °F 87% 29.88 in 10.0 mi East 9.2 mph - N/A   Mostly Cloudy
3:33 AM 70.0 °F - 66.0 °F 87% 29.88 in 10.0 mi ESE 9.2 mph - N/A   Overcast
3:56 AM 70.0 °F - 66.9 °F 90% 29.85 in 10.0 mi East 9.2 mph - N/A   Overcast
4:56 AM 69.1 °F - 66.9 °F 93% 29.82 in 9.0 mi East 6.9 mph - 0.00 in Rain Light Rain
5:56 AM 69.1 °F - 66.9 °F 93% 29.82 in 5.0 mi ENE 8.1 mph - 0.00 in Rain Light Rain
6:56 AM 69.1 °F - 66.9 °F 93% 29.84 in 2.5 mi ENE 5.8 mph - 0.02 in Rain Light Rain
7:29 AM 69.1 °F - 66.9 °F 93% 29.86 in 3.0 mi East 8.1 mph - 0.00 in Rain Light Rain
7:56 AM 69.1 °F - 66.9 °F 93% 29.84 in 3.0 mi East 8.1 mph - 0.00 in Rain Light Rain
8:53 AM 69.8 °F - 68.0 °F 94% 29.84 in 6.0 mi East 10.4 mph - 0.00 in   Overcast
8:56 AM 70.0 °F - 68.0 °F 93% 29.82 in 6.0 mi East 8.1 mph - 0.00 in   Overcast
9:56 AM 73.0 °F - 69.1 °F 87% 29.82 in 10.0 mi ESE 3.5 mph - N/A   Overcast
10:30 AM 73.0 °F - 68.0 °F 84% 29.86 in 10.0 mi Calm Calm - N/A   Overcast
10:43 AM 73.9 °F - 69.1 °F 85% 29.85 in 10.0 mi Calm Calm - 0.00 in Rain Light Rain
10:48 AM 73.9 °F - 69.1 °F 85% 29.86 in 10.0 mi NE 3.5 mph - 0.00 in Rain Light Rain
10:56 AM 75.0 °F - 69.1 °F 82% 29.83 in 10.0 mi NNE 4.6 mph - 0.00 in Rain Light Rain
11:56 AM 75.0 °F - 69.1 °F 82% 29.83 in 10.0 mi SE 4.6 mph - 0.00 in   Overcast
12:56 PM 78.1 °F - 71.1 °F 79% 29.83 in 10.0 mi Variable 5.8 mph - 0.00 in   Mostly Cloudy
1:21 PM 79.0 °F - 71.1 °F 77% 29.85 in 10.0 mi Variable 4.6 mph - N/A   Mostly Cloudy
1:56 PM 81.0 °F 84.9 °F 71.1 °F 72% 29.83 in 10.0 mi Variable 3.5 mph - N/A   Mostly Cloudy
2:35 PM 82.0 °F 85.9 °F 70.0 °F 67% 29.85 in 10.0 mi North 3.5 mph - N/A   Mostly Cloudy
2:56 PM 82.9 °F 86.5 °F 69.1 °F 63% 29.82 in 10.0 mi Variable 3.5 mph - N/A   Mostly Cloudy
3:56 PM 82.9 °F 86.5 °F 69.1 °F 63% 29.82 in 10.0 mi North 5.8 mph - N/A   Mostly Cloudy
4:56 PM 82.0 °F 85.9 °F 70.0 °F 67% 29.83 in 10.0 mi NNW 5.8 mph - N/A   Mostly Cloudy
5:56 PM 81.0 °F 84.1 °F 69.1 °F 67% 29.83 in 10.0 mi NNE 5.8 mph - N/A   Mostly Cloudy
6:56 PM 82.0 °F 85.9 °F 70.0 °F 67% 29.83 in 10.0 mi North 4.6 mph - N/A   Scattered Clouds
7:56 PM 79.0 °F - 70.0 °F 74% 29.84 in 10.0 mi North 5.8 mph - N/A   Scattered Clouds
8:56 PM 75.9 °F - 69.1 °F 79% 29.85 in 10.0 mi NNW 4.6 mph - N/A   Scattered Clouds
9:56 PM 73.9 °F - 69.1 °F 85% 29.88 in 10.0 mi NW 6.9 mph - N/A   Partly Cloudy
10:56 PM 72.0 °F - 66.9 °F 84% 29.89 in 10.0 mi NW 6.9 mph - N/A   Partly Cloudy
11:56 PM 71.1 °F - 66.0 °F 84% 29.89 in 10.0 mi WNW 5.8 mph - N/A   Clear